Flag for U.S.A. Weather past 2 weeks in Portsmouth, Virginia, U.S.A.

Now
87 °F

Scattered clouds.


Feels Like: 92 °F
Forecast: 72 / 88 °F
Wind: 12 mph from East

Location: Norfolk Naval Air Station

Current Time: Sep 4, 2015 at 1:11:06 PM

Latest Report: Sep 4, 2015 at 11:59 AM


Visibility: 5 mi

Pressure: 30.01 "Hg

Humidity: 57%

Dew point: 70 °F

Location of PortsmouthLocation

Historic Weather in Portsmouth — Graph

°F

Portsmouth temperature yesterday

Maximum temperature yesterday: 89 °F (at 12:59 PM)
Minimum temperature yesterday: 73 °F (at 5:59 AM)
Average temperature yesterday: 80 °F

Past Weeks' High & Low Weather Summary

 TemperatureHumidityPressure
High93 °F (Sep 2, 1:59 PM)97% (Aug 21, 1:59 AM)30.25 "Hg (Aug 21, 1:59 AM)
Low48 °F (Aug 22, 3:59 AM)37% (Aug 30, 1:59 PM)29.86 "Hg (Sep 3, 6:59 PM)
Average77 °F69%30.03 "Hg
* Reported Aug 20 11:59 AM — Sep 4 11:59 AM, Portsmouth, Weather by CustomWeather, © 2015

Note: Actual official high and low records may vary slightly from our data, if they occured in-between our weather recording intervals... More about our weather records

Advertising

Portsmouth weather history for previous 24 hours

 ConditionsComfort  
Time TempWeatherWind HumidityBarometerVisibility
11:59 AM
Fri, Sep 4
87 °FScattered clouds.12 mph57%30.01 "Hg5 mi
10:59 AM86 °FScattered clouds.9 mph65%30.00 "Hg5 mi
9:59 AM85 °FScattered clouds.7 mph75%29.98 "Hg5 mi
8:59 AM83 °FScattered clouds.8 mph77%29.97 "Hg5 mi
7:59 AM80 °FFog.6 mph85%29.95 "Hg5 mi
6:59 AM74 °FFog.No wind91%29.93 "Hg4 mi
5:59 AM73 °FFog.No wind94%29.91 "Hg3 mi
4:59 AM74 °FFog.3 mph91%29.91 "Hg4 mi
3:59 AM74 °FFog.No wind94%29.91 "Hg5 mi
2:59 AM75 °FFog.No wind90%29.89 "Hg5 mi
1:59 AM75 °FFog.No wind90%29.90 "Hg5 mi
12:59 AM76 °FFog.No wind88%29.90 "Hg6 mi
11:59 PM
Thu, Sep 3
76 °FPassing clouds.3 mph88%29.90 "Hg7 mi
10:59 PM76 °FPassing clouds.No wind82%29.90 "Hg7 mi
9:59 PM77 °FPassing clouds.3 mph79%29.90 "Hg7 mi
8:59 PM79 °FPassing clouds.5 mph72%29.90 "Hg7 mi
7:59 PM79 °FScattered clouds.3 mph69%29.87 "Hg7 mi
6:59 PM84 °FScattered clouds.3 mph57%29.86 "Hg7 mi
5:59 PM88 °FScattered clouds.5 mph46%29.87 "Hg7 mi
4:59 PM89 °FScattered clouds.5 mph45%29.87 "Hg7 mi
3:59 PM89 °FPassing clouds.6 mph48%29.87 "Hg7 mi
2:59 PM89 °FPassing clouds.5 mph52%29.90 "Hg7 mi
1:59 PM88 °FPassing clouds.6 mph55%29.91 "Hg7 mi
Weather by CustomWeather, © 2015

See weather overviewHow to use our weather pages